Date,TemperatureHighF,TemperatureAvgF,TemperatureLowF,DewpointHighF,DewpointAvgF,DewpointLowF,HumidityHigh,HumidityAvg,HumidityLow,PressureMaxIn,PressureMinIn,WindSpeedMaxMPH,WindSpeedAvgMPH,GustSpeedMaxMPH,PrecipitationSumIn
2013-12-1,50.4,36.5,24.1,36.4,29.8,22.6,97,79,51,30.07,29.89,6,1,6,0.00
2013-12-2,45.7,39.6,33.8,39.4,34.9,30.2,94,83,73,29.91,29.61,9,3,9,0.00
2013-12-3,52.2,46.4,38.9,50.0,44.8,36.6,97,94,90,29.63,29.56,11,2,11,0.00
2013-12-4,56.2,49.9,35.4,55.0,47.9,31.1,97,93,82,29.76,29.42,15,3,15,0.00
2013-12-5,35.0,25.3,20.9,30.7,18.0,12.3,86,74,67,30.27,29.76,10,3,11,0.00
2013-12-6,21.1,17.6,11.6,13.6,9.5,6.1,78,70,59,30.57,30.25,11,2,11,0.00
2013-12-7,23.2,14.6,7.7,9.4,5.6,3.4,83,68,46,30.70,30.51,6,2,7,0.00
2013-12-8,25.4,21.9,15.0,23.7,17.6,6.9,93,83,70,30.54,29.96,11,3,11,0.00
2013-12-9,25.4,20.9,6.3,23.4,15.2,1.7,92,79,66,30.26,29.97,15,4,15,0.00
2013-12-10,31.0,17.3,3.0,18.6,9.4,-0.8,87,72,50,30.27,30.09,13,3,16,0.02
2013-12-16,22.4,18.8,15.0,20.3,15.6,11.8,94,87,83,30.09,29.98,4,1,7,0.00
2013-12-17,39.2,27.5,21.8,31.7,23.2,17.0,93,84,66,30.17,30.02,10,3,15,0.21
2013-12-18,36.4,34.7,33.1,31.0,28.9,16.8,83,79,71,30.17,29.82,9,2,9,0.08
2013-12-19,45.1,40.5,35.5,41.3,36.9,30.7,95,87,78,29.85,29.69,7,2,9,0.08
2013-12-20,42.8,36.7,30.6,41.7,35.8,29.6,97,97,93,29.79,29.65,7,1,7,0.15
2013-12-21,32.9,30.8,29.2,32.0,29.6,27.9,97,95,94,29.82,29.53,8,1,8,0.00
2013-12-22,33.1,30.8,19.8,32.3,29.3,16.9,97,94,87,30.19,29.54,9,1,9,0.36
2013-12-23,19.9,13.7,5.0,17.4,9.2,-1.3,90,82,74,30.52,30.19,15,3,15,0.00
2013-12-24,21.3,10.6,-0.6,15.2,5.1,-5.3,84,78,72,30.59,30.31,9,2,9,0.00
2013-12-25,30.1,26.9,21.3,27.5,23.3,14.5,92,86,76,30.32,30.12,15,4,15,0.00
2013-12-26,38.5,29.9,18.7,32.5,25.7,16.6,93,84,69,30.28,30.13,12,2,12,0.00
2013-12-27,47.7,34.8,24.6,38.0,30.6,23.0,97,85,68,30.28,30.09,8,2,9,0.00
2013-12-28,54.6,41.1,33.8,40.9,33.6,29.5,87,75,56,30.11,29.80,15,3,15,0.00
2013-12-29,37.3,25.1,6.2,31.4,21.2,0.3,93,85,75,30.24,29.75,10,2,10,0.00
2013-12-30,17.6,10.4,0.7,11.9,3.1,-4.3,82,72,58,30.35,30.17,10,2,10,0.00
2013-12-31,25.9,19.1,12.1,19.1,13.3,8.4,86,78,64,30.36,30.16,8,2,10,0.00